2023/03/02 00:00:00,34.8, 1.7
2023/03/02 00:10:00,34.8, 1.6
2023/03/02 00:20:00,34.8, 1.5
2023/03/02 00:30:00,34.7, 1.4
2023/03/02 00:40:00,34.7, 1.4
2023/03/02 00:50:00,34.6, 1.3
2023/03/02 01:00:00,34.5, 1.7
2023/03/02 01:10:00,34.5, 1.4
2023/03/02 01:20:00,34.5, 2.0
2023/03/02 01:30:00,34.5, 1.9
2023/03/02 01:40:00,34.5, 1.9
2023/03/02 01:50:00,34.6, 1.7
2023/03/02 02:00:00,34.5, 2.2
2023/03/02 02:10:00,34.7, 2.1
2023/03/02 02:20:00,34.9, 1.8
2023/03/02 02:30:00,35.1, 2.6
2023/03/02 02:40:00,35.1, 2.4
2023/03/02 02:50:00,34.9, 2.6
2023/03/02 03:00:00,34.9, 2.4
2023/03/02 03:10:00,35.1, 2.3
2023/03/02 03:20:00,35.0, 2.0
2023/03/02 03:30:00,35.1, 1.8
2023/03/02 03:40:00,35.2, 2.1
2023/03/02 03:50:00,34.3, 1.8
2023/03/02 04:00:00,34.1, 1.6
2023/03/02 04:10:00,34.2, 1.4
2023/03/02 04:20:00,34.1, 1.3
2023/03/02 04:30:00,33.9, 1.3
2023/03/02 04:40:00,33.9, 1.1
2023/03/02 04:50:00,34.0, 1.0
2023/03/02 05:00:00,34.7, 0.6
2023/03/02 05:10:00,34.7, 0.7
2023/03/02 05:20:00,34.6, 0.7
2023/03/02 05:30:00,34.6, 0.4
2023/03/02 05:40:00,34.8, 0.5
2023/03/02 05:50:00,34.9, 0.6
2023/03/02 06:00:00,35.0, 0.3
2023/03/02 06:10:00,35.3, 0.2
2023/03/02 06:20:00,35.6, 0.0
2023/03/02 06:30:00,36.0,-0.2
2023/03/02 06:40:00,36.4,-0.4
2023/03/02 06:50:00,36.7,-0.1
2023/03/02 07:00:00,37.0,-0.6
2023/03/02 07:10:00,37.5,-0.7
2023/03/02 07:20:00,37.7,-0.4
2023/03/02 07:30:00,38.1,-0.7
2023/03/02 07:40:00,38.4,-0.7
2023/03/02 07:50:00,38.8,-0.8
2023/03/02 08:00:00,39.5,-0.6
2023/03/02 08:10:00,40.0,-0.4
2023/03/02 08:20:00,40.5,-0.7
2023/03/02 08:30:00,40.9,-1.1
2023/03/02 08:40:00,41.1,-1.0
2023/03/02 08:50:00,41.4,-1.2
2023/03/02 09:00:00,41.9,-1.2
2023/03/02 09:10:00,42.0,-1.2
2023/03/02 09:20:00,42.1,-1.2
2023/03/02 09:30:00,42.3,-0.7
2023/03/02 09:40:00,42.8,-1.1
2023/03/02 09:50:00,43.0,-0.3
2023/03/02 10:00:00,43.1,-0.2
2023/03/02 10:10:00,43.6,-0.8
2023/03/02 10:20:00,43.5, 0.3
2023/03/02 10:30:00,43.7, 0.3
2023/03/02 10:40:00,44.1,-1.0
2023/03/02 10:50:00,44.4,-0.5
2023/03/02 11:00:00,44.4, 0.1
2023/03/02 11:10:00,44.3,-0.4
2023/03/02 11:20:00,44.6,-0.5
2023/03/02 11:30:00,45.1,-1.1
2023/03/02 11:40:00,45.6,-0.5
2023/03/02 11:50:00,45.8,-1.2
2023/03/02 12:00:00,45.9,-0.7
2023/03/02 12:10:00,45.7, 1.1
2023/03/02 12:20:00,45.6, 1.5
2023/03/02 12:30:00,45.6, 0.5
2023/03/02 12:40:00,45.6,-0.3
2023/03/02 12:50:00,45.9,-1.0
2023/03/02 13:00:00,46.0,-0.3
2023/03/02 13:10:00,46.3,-0.9
2023/03/02 13:20:00,46.1, 0.3
2023/03/02 13:30:00,46.0, 2.4
2023/03/02 13:40:00,46.0, 0.4
2023/03/02 13:50:00,46.6,-0.2
2023/03/02 14:00:00,46.8, 0.8
2023/03/02 14:10:00,46.6, 0.8
2023/03/02 14:20:00,46.8,-0.5
2023/03/02 14:30:00,47.0,-1.1
2023/03/02 14:40:00,47.4,-0.5
2023/03/02 14:50:00,47.6,-0.1
2023/03/02 15:00:00,47.5, 1.3
2023/03/02 15:10:00,47.3, 1.4
2023/03/02 15:20:00,47.1, 0.4
2023/03/02 15:30:00,47.0, 0.0
2023/03/02 15:40:00,47.0,-0.5
2023/03/02 15:50:00,46.9,-0.7
2023/03/02 16:00:00,46.9,-0.8
2023/03/02 16:10:00,46.9,-1.2
2023/03/02 16:20:00,46.9,-0.6
2023/03/02 16:30:00,47.0,-1.1
2023/03/02 16:40:00,47.0,-1.4
2023/03/02 16:50:00,47.2,-1.4
2023/03/02 17:00:00,47.9,-1.4
2023/03/02 17:10:00,48.0,-1.3
2023/03/02 17:20:00,48.5,-1.5
2023/03/02 17:30:00,48.8,-1.4
2023/03/02 17:40:00,48.9,-1.9
2023/03/02 17:50:00,48.9,-1.8
2023/03/02 18:00:00,48.8,-1.4
2023/03/02 18:10:00,48.8,-1.7
2023/03/02 18:20:00,48.8,-1.6
2023/03/02 18:30:00,48.8,-1.7
2023/03/02 18:40:00,48.7,-1.8
2023/03/02 18:50:00,48.7,-1.6
2023/03/02 19:00:00,48.7,-1.9
2023/03/02 19:10:00,48.7,-1.6
2023/03/02 19:20:00,48.7,-1.9
2023/03/02 19:30:00,48.7,-1.7
2023/03/02 19:40:00,48.7,-1.8
2023/03/02 19:50:00,48.7,-1.7
2023/03/02 20:00:00,48.8,-2.1
2023/03/02 20:10:00,49.1,-2.1
2023/03/02 20:20:00,49.0,-1.8
2023/03/02 20:30:00,49.2,-1.7
2023/03/02 20:40:00,49.2,-1.8
2023/03/02 20:50:00,49.2,-1.7
2023/03/02 21:00:00,49.2,-1.7
2023/03/02 21:10:00,49.0,-1.6
2023/03/02 21:20:00,49.1,-1.7
2023/03/02 21:30:00,49.2,-1.9
2023/03/02 21:40:00,49.3,-1.7
2023/03/02 21:50:00,49.4,-2.1
2023/03/02 22:00:00,49.4,-2.0
2023/03/02 22:10:00,49.4,-2.2
2023/03/02 22:20:00,49.4,-2.2
2023/03/02 22:30:00,49.3,-1.9
2023/03/02 22:40:00,49.3,-1.8
2023/03/02 22:50:00,49.2,-2.2
2023/03/02 23:00:00,49.2,-1.6
2023/03/02 23:10:00,49.2,-1.6
2023/03/02 23:20:00,49.2,-2.1
2023/03/02 23:30:00,49.1,-1.6
2023/03/02 23:40:00,49.0,-2.0
2023/03/02 23:50:00,48.8,-1.7
